Location: Hopkins Observatory
(42.6965°N, 73.1843°W)
Time: 18:01:42
(UTC-04:00)

Amateur Radio Satellites - All Passes

Search period start: 25 July 2016 17:31
Search period end: 26 July 2016 17:31
Location: Hopkins Observatory, 42.6965°N, 73.1843°W

Satellite Date Start Highest point End Downlink Frequencies (MHz)
Time Altitude Azimuth
BRITE-PL 25 Jul 17:34:12 17:38:09 44° 72° (ENE) 17:42:07 437.365/2234.400
PHONESAT 2.4 25 Jul 17:35:49 17:37:40 15° 152° (SSE) 17:39:31 2401.200-2431.200
HO-68 25 Jul 17:46:27 17:48:57 12° 47° (NE) 17:51:27 435.675
RS-15 25 Jul 17:46:33 17:58:00 47° 251° (WSW) 18:09:17 29.354- 29.394
MOZHAYETS 4 25 Jul 17:49:03 17:52:50 26° 293° (WNW) 17:56:35
HORYU 2 25 Jul 17:51:34 17:55:21 26° 264° (W) 17:59:10 437.375
AO-7 25 Jul 17:58:46 18:01:50 12° 274° (W) 18:04:56 29.400- 29.500
STARS 25 Jul 18:12:27 18:16:18 29° 292° (WNW) 18:20:09 437.465
Cubesat XI-IV 25 Jul 18:19:35 18:24:58 86° 75° (ENE) 18:30:24 437.490
GONETS M04 25 Jul 18:28:03 18:32:44 15° 303° (WNW) 18:37:28
Cosmos 2499 25 Jul 18:28:06 18:34:12 20° 298° (WNW) 18:40:14 435.465 / 435.565
PCSat 25 Jul 18:34:04 18:36:11 12° 102° (ESE) 18:38:19 145.827
CUTE-I 25 Jul 18:44:02 18:49:20 58° 259° (W) 18:54:39 437.470
GOMX 1 25 Jul 18:45:51 18:49:59 68° 259° (W) 18:54:16 467.674
DOVE 4 25 Jul 18:48:07 18:52:16 55° 73° (ENE) 18:56:39 437.250
LilacSat-2 25 Jul 18:53:08 18:56:44 36° 263° (W) 19:00:21 437.200
CUBESAT XI-V 25 Jul 19:02:58 19:07:06 34° 291° (WNW) 19:11:16 437.345
NOAA 18 25 Jul 19:04:44 19:09:50 38° 262° (W) 19:15:01 137.9125
PHONESAT 2.4 25 Jul 19:10:47 19:13:44 43° 168° (SSE) 19:16:41 2401.200-2431.200
NOAA 15 25 Jul 19:11:44 19:15:59 25° 266° (W) 19:20:14 137.62
SO-50 25 Jul 19:12:56 19:14:46 12° 253° (WSW) 19:16:36 436.795
CINEMA 3 25 Jul 19:13:26 19:17:23 31° 68° (ENE) 19:21:32 145.822/145.860
BRITE-PL 25 Jul 19:14:36 19:16:56 15° 269° (W) 19:19:18 437.365/2234.400
BEESAT 3 25 Jul 19:23:41 19:27:35 84° 124° (SE) 19:31:33 437.485
CANX-2 25 Jul 19:26:00 19:29:56 37° 71° (ENE) 19:33:53 2200.000
BEESAT 2 25 Jul 19:26:13 19:30:00 46° 118° (ESE) 19:33:49 435.950
HO-68 25 Jul 19:28:11 19:35:10 57° 67° (ENE) 19:42:11 435.675
AAUSAT CUBESAT 2 25 Jul 19:33:50 19:36:24 16° 65° (ENE) 19:38:59 437.432
CUTE 1.7 + AOD 2 25 Jul 19:39:37 19:43:42 45° 72° (ENE) 19:47:48 437.475
STRAND 1 25 Jul 19:47:11 19:52:02 42° 98° (E) 19:56:51 437.568
Cubesat XI-IV 25 Jul 20:03:40 20:05:43 12° 272° (W) 20:07:48 437.490
Cosmos 2491 25 Jul 20:04:16 20:07:04 12° 72° (ENE) 20:09:51 435.465 / 435.565
PCSat 25 Jul 20:13:20 20:18:45 90° 266° (W) 20:24:13 145.827
UWE-3 25 Jul 20:14:30 20:18:25 29° 68° (ENE) 20:22:26 435.000/436.395/437.385
ZACube-1 25 Jul 20:19:42 20:23:11 22° 66° (ENE) 20:26:43 437.345
FUNcube-1 25 Jul 20:19:55 20:23:18 21° 65° (ENE) 20:26:42 145.935
SEEDS 25 Jul 20:21:58 20:26:13 85° 257° (WSW) 20:30:28 437.485
DOVE 4 25 Jul 20:28:21 20:30:26 13° 271° (W) 20:32:34 437.250
YUBILEINY 25 Jul 20:30:56 20:39:19 44° 73° (ENE) 20:47:35 435.215
CUBEBUG 2 25 Jul 20:32:05 20:36:35 63° 74° (ENE) 20:41:15 437.445
COMPASS 1 25 Jul 20:37:10 20:41:22 82° 258° (WSW) 20:45:34 437.405
PHONESAT 2.4 25 Jul 20:47:03 20:50:04 54° 185° (S) 20:53:06 2401.200-2431.200
CINEMA 3 25 Jul 20:50:44 20:54:31 27° 266° (W) 20:58:29 145.822/145.860
CANX-2 25 Jul 21:02:46 21:05:54 20° 267° (W) 21:09:04 2200.000
BEESAT 3 25 Jul 21:03:51 21:05:49 13° 322° (NW) 21:07:47 437.485
Oscar 11 25 Jul 21:03:52 21:08:10 63° 74° (ENE) 21:12:29 145.826/435.025
BEESAT 2 25 Jul 21:05:06 21:08:03 20° 317° (NW) 21:11:02 435.950
AAUSAT CUBESAT 2 25 Jul 21:07:32 21:11:32 46° 261° (W) 21:15:33 437.432
PRISM 25 Jul 21:08:50 21:12:39 36° 98° (E) 21:16:26 437.425
AIST 2 25 Jul 21:12:11 21:15:46 30° 115° (ESE) 21:19:25 435.215
M-CUBED/EXP-1 PRIME 25 Jul 21:12:27 21:15:57 40° 65° (ENE) 21:19:47 437.505
CUTE 1.7 + AOD 2 25 Jul 21:17:06 21:19:47 16° 268° (W) 21:22:28 437.475
HO-68 25 Jul 21:17:11 21:23:12 29° 266° (W) 21:29:18 435.675
Cosmos 2504 25 Jul 21:25:50 21:33:02 32° 68° (ENE) 21:39:46 435.465 / 435.565
AO-85 25 Jul 21:26:20 21:28:09 12° 32° (NNE) 21:29:54 145.980
STRAND 1 25 Jul 21:26:51 21:30:59 25° 296° (WNW) 21:35:05 437.568
O/OREOS (USA 219) 25 Jul 21:28:17 21:32:44 79° 294° (WNW) 21:37:14 437.305
AUBIESAT-1 25 Jul 21:39:49 21:43:33 69° 69° (ENE) 21:47:38 437.475
DELFI C3 25 Jul 21:44:42 21:48:41 78° 76° (ENE) 21:52:40 145.870
HUMSAT D 25 Jul 21:48:47 21:52:50 41° 71° (ENE) 21:56:54 437.325/437.525
UWE-3 25 Jul 21:50:50 21:54:48 29° 265° (W) 21:58:53 435.000/436.395/437.385
Cosmos 2491 25 Jul 21:53:30 22:02:06 67° 92° (E) 22:10:42 435.465 / 435.565
FUNcube-1 25 Jul 21:54:58 21:59:14 41° 263° (W) 22:03:35 145.935
ZACube-1 25 Jul 21:54:59 21:59:12 39° 263° (W) 22:03:31 437.345
PCSat 25 Jul 21:59:18 22:02:56 18° 320° (NW) 22:06:34 145.827
ESTCUBE 1 25 Jul 22:00:59 22:02:25 11° 60° (ENE) 22:03:52 437.505/2401.250
CUBEBUG 2 25 Jul 22:11:20 22:13:40 14° 271° (W) 22:16:01 437.445
ANTELSAT 25 Jul 22:22:29 22:26:06 22° 93° (E) 22:29:38 437.575/2403.000
ISS 25 Jul 22:23:36 22:26:51 72° 143° (SE) 22:30:07 145.825
PHONESAT 2.4 25 Jul 22:23:41 22:26:18 25° 201° (SSW) 22:28:54 2401.200-2431.200
VELOX 1 25 Jul 22:24:47 22:26:19 12° 60° (ENE) 22:27:50 145.980
YUBILEINY 25 Jul 22:27:55 22:36:03 43° 273° (W) 22:44:09 435.215
CUBEBUG 1 25 Jul 22:29:34 22:31:53 14° 63° (ENE) 22:34:13 437.445
Oscar 11 25 Jul 22:42:56 22:44:42 12° 270° (W) 22:46:28 145.826/435.025
PRISM 25 Jul 22:44:46 22:47:42 19° 295° (WNW) 22:50:39 437.425
M-CUBED/EXP-1 PRIME 25 Jul 22:48:28 22:50:46 16° 264° (W) 22:53:11 437.505
AIST 2 25 Jul 22:50:37 22:54:13 29° 313° (NW) 22:57:53 435.215
TIGRISAT 25 Jul 23:03:59 23:08:35 56° 100° (E) 23:13:03 435.000
AO-85 25 Jul 23:05:09 23:09:36 66° 54° (NE) 23:13:39 145.980
AISAT 25 Jul 23:06:39 23:10:32 32° 69° (ENE) 23:14:27 437.250
O/OREOS (USA 219) 25 Jul 23:12:19 23:12:56 10° 313° (NW) 23:13:33 437.305
DX 1 25 Jul 23:12:35 23:16:11 26° 67° (ENE) 23:19:48 434.975-435.025
NANOSAT C BR1 25 Jul 23:17:41 23:19:13 12° 90° (E) 23:20:44 145.865
Cosmos 2504 25 Jul 23:18:53 23:26:50 55° 270° (W) 23:34:12 435.465 / 435.565
UNISAT 6 25 Jul 23:19:45 23:24:27 87° 103° (ESE) 23:29:01 437.425
DUCHIFAT 1 25 Jul 23:22:32 23:24:21 12° 90° (E) 23:26:10 145.980
HUMSAT D 25 Jul 23:25:38 23:28:37 18° 268° (W) 23:31:38 437.325/437.525
UKube-1 25 Jul 23:29:10 23:32:58 31° 68° (ENE) 23:36:45 .
ESTCUBE 1 25 Jul 23:34:04 23:38:34 81° 258° (WSW) 23:43:05 437.505/2401.250
50 SAT 25 Jul 23:34:22 23:38:00 61° 75° (ENE) 23:41:37 437.505
QB50P1 25 Jul 23:37:39 23:40:56 21° 94° (E) 23:44:11 145.935-145.965
POPSAT HIP 1 25 Jul 23:43:46 23:47:16 24° 94° (E) 23:50:45 437.405
Cosmos 2491 25 Jul 23:52:26 23:59:37 28° 294° (WNW) 00:06:52 435.465 / 435.565
AIST 1 25 Jul 23:55:23 23:58:30 19° 71° (ENE) 00:01:37
VELOX 1 25 Jul 23:57:46 00:02:09 77° 257° (WSW) 00:06:34 145.980
ANTELSAT 25 Jul 23:58:36 00:02:57 39° 290° (WNW) 00:07:10 437.575/2403.000
JAS-2 25 Jul 23:59:49 00:02:04 13° 90° (E) 00:04:23 435.910
ISS 26 Jul 00:00:48 00:03:33 24° 342° (NNW) 00:06:17 145.825
CUBEBUG 1 26 Jul 00:03:27 00:07:42 58° 260° (W) 00:11:58 437.445
QB50P2 26 Jul 00:03:50 00:07:57 42° 98° (E) 00:12:01 145.880/145.840
SPROUT 26 Jul 00:05:13 00:09:24 59° 74° (ENE) 00:13:39 437.525
POLYITAN 1 26 Jul 00:06:29 00:10:36 43° 98° (E) 00:14:41 437.675
GONETS M04 26 Jul 00:41:03 00:44:25 12° 54° (NE) 00:47:47
TIGRISAT 26 Jul 00:41:51 00:44:48 17° 297° (WNW) 00:47:42 435.000
AISAT 26 Jul 00:43:28 00:47:02 24° 265° (W) 00:50:38 437.250
AO-85 26 Jul 00:47:38 00:49:20 12° 253° (WSW) 00:50:59 145.980
DX 1 26 Jul 00:48:31 00:52:16 29° 264° (W) 00:56:04 434.975-435.025
NANOSAT C BR1 26 Jul 00:51:07 00:55:22 63° 286° (WNW) 00:59:34 145.865
DUCHIFAT 1 26 Jul 00:56:12 01:00:26 59° 286° (WNW) 01:04:37 145.980
UNISAT 6 26 Jul 00:58:57 01:00:24 11° 301° (WNW) 01:01:52 437.425
UKube-1 26 Jul 01:05:30 01:09:00 24° 265° (W) 01:12:32 .
ITUPSAT 1 26 Jul 01:06:26 01:09:13 16° 61° (ENE) 01:12:01 437.325
TISAT 1 26 Jul 01:06:28 01:10:36 67° 75° (ENE) 01:14:49 437.305
QB50P1 26 Jul 01:12:52 01:16:47 35° 290° (WNW) 01:20:41 145.935-145.965
BUGSAT 1 26 Jul 01:17:16 01:21:31 78° 285° (WNW) 01:25:47 437.445
POPSAT HIP 1 26 Jul 01:19:16 01:23:04 31° 291° (WNW) 01:26:50 437.405
AIST 1 26 Jul 01:32:13 01:36:14 38° 268° (W) 01:40:16
ISS 26 Jul 01:38:33 01:40:48 17° 3° (N) 01:43:01 145.825
QB50P2 26 Jul 01:40:28 01:43:26 19° 295° (WNW) 01:46:23 145.880/145.840
JAS-2 26 Jul 01:42:27 01:47:43 79° 286° (WNW) 01:53:23 435.910
POLYITAN 1 26 Jul 01:43:08 01:46:05 18° 295° (WNW) 01:49:00 437.675
SPROUT 26 Jul 01:43:52 01:45:44 13° 270° (W) 01:47:36 437.525
Gurwin Techsat 1B 26 Jul 01:50:41 01:54:08 17° 91° (E) 01:57:33 435.225
SWISSCUBE 26 Jul 01:58:11 02:02:50 52° 71° (ENE) 02:07:30 437.505
BEESAT 26 Jul 02:19:35 02:24:22 77° 74° (ENE) 02:29:10 436.000
Oscar 19 26 Jul 02:20:51 02:26:02 72° 103° (ESE) 02:31:12 437.125/150
Cosmos 2499 26 Jul 02:22:41 02:29:51 35° 70° (ENE) 02:36:31 435.465 / 435.565
GONETS M04 26 Jul 02:34:41 02:43:24 61° 77° (ENE) 02:52:06
ITUPSAT 1 26 Jul 02:41:44 02:46:31 66° 258° (WSW) 02:51:19 437.325
TISAT 1 26 Jul 02:45:49 02:46:43 11° 271° (W) 02:47:38 437.305
KKS-1 26 Jul 02:51:28 02:54:41 20° 64° (ENE) 02:57:55 437.445
MOZHAYETS 4 26 Jul 03:14:05 03:18:16 35° 69° (ENE) 03:22:28
ISS 26 Jul 03:14:58 03:17:57 31° 23° (NNE) 03:20:54 145.825
PCSat 26 Jul 03:18:16 03:21:44 17° 39° (NE) 03:25:10 145.827
CUSAT 1 26 Jul 03:21:58 03:25:07 20° 96° (E) 03:27:48 437.405
Gurwin Techsat 1B 26 Jul 03:29:15 03:34:31 62° 288° (WNW) 03:39:44 435.225
JAS-2 26 Jul 03:30:52 03:32:03 11° 303° (WNW) 03:33:14 435.910
DANDE 26 Jul 03:31:16 03:33:57 14° 92° (E) 03:36:22 436.750
STARS 26 Jul 03:33:35 03:37:16 27° 67° (ENE) 03:40:58 437.465
SWISSCUBE 26 Jul 03:37:45 03:40:56 17° 268° (W) 03:44:06 437.505
BEESAT 3 26 Jul 03:40:11 03:44:08 60° 55° (NE) 03:48:02 437.485
BEESAT 2 26 Jul 03:43:27 03:47:12 36° 50° (NE) 03:50:55 435.950
ITAMSAT 1 26 Jul 03:51:59 03:57:12 74° 103° (ESE) 04:02:22 435.822/435.867
AO-7 26 Jul 04:00:14 04:07:59 40° 99° (E) 04:15:38 29.400- 29.500
BEESAT 26 Jul 04:01:04 04:02:42 12° 271° (W) 04:04:20 436.000
Oscar 19 26 Jul 04:01:40 04:04:46 16° 300° (WNW) 04:07:51 437.125/150
Cosmos 2499 26 Jul 04:15:43 04:23:08 46° 272° (W) 04:30:02 435.465 / 435.565
KKS-1 26 Jul 04:26:45 04:30:57 42° 261° (W) 04:35:11 437.445
CUBESAT XI-V 26 Jul 04:29:58 04:33:49 27° 67° (ENE) 04:37:40 437.345
GONETS M04 26 Jul 04:32:20 04:39:38 31° 277° (W) 04:46:57
ISS 26 Jul 04:51:20 04:54:26 41° 220° (SW) 04:57:31 145.825
MOZHAYETS 4 26 Jul 04:51:41 04:55:28 25° 266° (W) 04:59:17
PCSat 26 Jul 05:00:31 05:05:59 84° 60° (ENE) 05:11:24 145.827
CUSAT 1 26 Jul 05:03:44 05:07:02 22° 283° (WNW) 05:09:47 437.405
STARS 26 Jul 05:09:42 05:13:32 29° 264° (W) 05:17:23 437.465
DANDE 26 Jul 05:10:49 05:16:37 65° 280° (W) 05:20:56 436.750
BEESAT 3 26 Jul 05:19:36 05:21:18 12° 251° (WSW) 05:23:00 437.485
BEESAT 2 26 Jul 05:21:45 05:24:49 21° 247° (WSW) 05:27:53 435.950
AIST 2 26 Jul 05:32:29 05:36:07 28° 47° (NE) 05:39:43 435.215
ITAMSAT 1 26 Jul 05:33:00 05:36:02 16° 301° (WNW) 05:39:04 435.822/435.867
BRITE-PL 26 Jul 05:37:56 05:40:50 16° 92° (E) 05:43:50 437.365/2234.400
HORYU 2 26 Jul 05:40:50 05:45:14 53° 101° (E) 05:49:35 437.375
NOAA 15 26 Jul 05:46:45 05:49:39 15° 90° (E) 05:52:32 137.62
NOAA 18 26 Jul 05:48:05 05:49:34 11° 88° (E) 05:51:03 137.9125
AO-7 26 Jul 05:52:56 06:00:51 49° 298° (WNW) 06:08:44 29.400- 29.500
O/OREOS (USA 219) 26 Jul 05:58:41 06:02:26 25° 57° (ENE) 06:06:11 437.305
RS-15 26 Jul 05:59:40 06:09:03 31° 103° (ESE) 06:18:48 29.354- 29.394
CUBESAT XI-V 26 Jul 06:06:57 06:11:05 32° 264° (W) 06:15:13 437.345
LilacSat-2 26 Jul 06:26:02 06:29:05 22° 94° (E) 06:32:05 437.200
Cubesat XI-IV 26 Jul 06:36:27 06:41:15 32° 96° (E) 06:45:59 437.490
GOMX 1 26 Jul 06:45:48 06:50:23 35° 97° (E) 06:55:12 467.674
PCSat 26 Jul 06:46:01 06:48:36 14° 257° (WSW) 06:51:11 145.827
DOVE 4 26 Jul 06:46:25 06:49:50 18° 91° (E) 06:53:18 437.250
CUTE-I 26 Jul 07:00:16 07:05:30 53° 100° (E) 07:10:42 437.470
STRAND 1 26 Jul 07:03:35 07:08:40 66° 73° (ENE) 07:13:48 437.568
AIST 2 26 Jul 07:10:52 07:14:36 32° 245° (WSW) 07:18:18 435.215
BRITE-PL 26 Jul 07:14:54 07:19:36 62° 286° (WNW) 07:24:40 437.365/2234.400
HORYU 2 26 Jul 07:18:33 07:21:21 17° 298° (WNW) 07:24:09 437.375
NOAA 15 26 Jul 07:24:41 07:29:56 71° 287° (WNW) 07:35:11 137.62
NOAA 18 26 Jul 07:25:25 07:31:00 85° 105° (ESE) 07:36:32 137.9125
O/OREOS (USA 219) 26 Jul 07:37:46 07:41:55 35° 254° (WSW) 07:46:03 437.305
SO-50 26 Jul 07:45:52 07:49:33 22° 111° (ESE) 07:53:14 436.795
AO-7 26 Jul 07:48:44 07:51:38 12° 320° (NW) 07:54:30 29.400- 29.500
PRISM 26 Jul 07:59:04 08:02:36 29° 69° (ENE) 08:06:08 437.425
LilacSat-2 26 Jul 08:00:03 08:03:23 27° 290° (WNW) 08:06:39 437.200
Cosmos 2491 26 Jul 08:03:07 08:10:55 35° 69° (ENE) 08:18:42 435.465 / 435.565
SEEDS 26 Jul 08:06:28 08:08:51 15° 91° (E) 08:11:15 437.485
RS-15 26 Jul 08:08:44 08:20:16 78° 306° (NW) 08:32:30 29.354- 29.394
Cubesat XI-IV 26 Jul 08:16:30 08:21:17 34° 293° (WNW) 08:26:03 437.490
COMPASS 1 26 Jul 08:20:36 08:22:57 15° 91° (E) 08:25:17 437.405
DOVE 4 26 Jul 08:22:48 08:27:50 61° 286° (WNW) 08:33:01 437.250
CUBEBUG 2 26 Jul 08:23:58 08:26:21 14° 89° (E) 08:28:40 437.445
GOMX 1 26 Jul 08:24:02 08:28:22 30° 291° (WNW) 08:32:54 467.674
CUTE-I 26 Jul 08:41:10 08:45:09 22° 298° (WNW) 08:49:08 437.470
HO-68 26 Jul 08:42:24 08:49:29 55° 101° (ESE) 08:56:29 435.675
CINEMA 3 26 Jul 08:43:22 08:48:25 71° 101° (ESE) 08:53:24 145.822/145.860
STRAND 1 26 Jul 08:45:17 08:48:18 16° 270° (W) 08:51:20 437.568
CANX-2 26 Jul 08:45:36 08:49:49 67° 102° (ESE) 08:53:59 2200.000
UNISAT 6 26 Jul 08:47:23 08:47:26 10° 58° (ENE) 08:47:30 437.425
AAUSAT CUBESAT 2 26 Jul 08:49:19 08:52:42 24° 95° (E) 08:56:04 437.432
Oscar 11 26 Jul 08:53:00 08:53:58 11° 89° (E) 08:54:56 145.826/435.025
CUTE 1.7 + AOD 2 26 Jul 08:59:15 09:03:30 83° 105° (ESE) 09:07:42 437.475
NOAA 18 26 Jul 09:07:49 09:10:54 15° 303° (WNW) 09:13:59 137.9125
NOAA 15 26 Jul 09:07:59 09:08:46 10° 305° (NW) 09:09:33 137.62
ANTELSAT 26 Jul 09:21:57 09:25:32 22° 65° (ENE) 09:29:09 437.575/2403.000
SO-50 26 Jul 09:24:56 09:29:42 52° 309° (NW) 09:34:27 436.795
YUBILEINY 26 Jul 09:32:38 09:40:54 49° 88° (E) 09:49:15 435.215
PRISM 26 Jul 09:34:40 09:37:55 23° 265° (W) 09:41:10 437.425
UWE-3 26 Jul 09:39:05 09:43:39 55° 99° (E) 09:48:05 435.000/436.395/437.385
SEEDS 26 Jul 09:40:49 09:44:49 46° 287° (WNW) 09:48:49 437.485
FUNcube-1 26 Jul 09:42:17 09:46:27 35° 97° (E) 09:50:28 145.935
ZACube-1 26 Jul 09:42:30 09:46:44 38° 97° (E) 09:50:51 437.345
COMPASS 1 26 Jul 09:54:48 09:58:46 46° 287° (WNW) 10:02:42 437.405
CUBEBUG 2 26 Jul 09:58:42 10:03:25 65° 286° (WNW) 10:08:00 437.445
Cosmos 2491 26 Jul 09:59:41 10:08:06 55° 270° (W) 10:16:33 435.465 / 435.565
TIGRISAT 26 Jul 10:02:51 10:07:20 53° 72° (ENE) 10:11:55 435.000
Cosmos 2504 26 Jul 10:04:48 10:11:50 28° 81° (E) 10:18:51 435.465 / 435.565
NANOSAT C BR1 26 Jul 10:11:45 10:12:38 11° 60° (ENE) 10:13:32 145.865
DUCHIFAT 1 26 Jul 10:16:13 10:17:27 11° 61° (ENE) 10:18:42 145.980
UNISAT 6 26 Jul 10:18:42 10:23:18 82° 76° (ENE) 10:28:02 437.425
CINEMA 3 26 Jul 10:22:00 10:24:56 16° 298° (WNW) 10:27:52 145.822/145.860
CANX-2 26 Jul 10:23:28 10:25:06 12° 298° (WNW) 10:26:44 2200.000
AAUSAT CUBESAT 2 26 Jul 10:24:38 10:28:09 28° 291° (WNW) 10:31:39 437.432
M-CUBED/EXP-1 PRIME 26 Jul 10:24:42 10:28:55 32° 101° (E) 10:33:07 437.505
RS-15 26 Jul 10:24:50 10:35:06 32° 335° (NNW) 10:45:46 29.354- 29.394
Oscar 11 26 Jul 10:26:15 10:30:34 70° 285° (WNW) 10:34:50 145.826/435.025
HO-68 26 Jul 10:30:41 10:36:50 32° 300° (WNW) 10:42:56 435.675
QB50P1 26 Jul 10:31:14 10:34:08 18° 65° (ENE) 10:37:04 145.935-145.965
POPSAT HIP 1 26 Jul 10:37:17 10:40:26 21° 66° (ENE) 10:43:36 437.405
AUBIESAT-1 26 Jul 10:51:36 10:56:07 49° 104° (ESE) 11:00:36 437.475
DELFI C3 26 Jul 10:56:15 11:00:10 69° 285° (WNW) 11:04:04 145.870
QB50P2 26 Jul 10:57:05 11:00:57 35° 70° (ENE) 11:04:51 145.880/145.840
ANTELSAT 26 Jul 10:57:37 11:01:58 40° 262° (W) 11:06:25 437.575/2403.000
POLYITAN 1 26 Jul 10:59:41 11:03:35 36° 70° (ENE) 11:07:31 437.675
HUMSAT D 26 Jul 11:06:45 11:10:58 70° 102° (ESE) 11:15:05 437.325/437.525
SO-50 26 Jul 11:09:37 11:11:18 12° 329° (NNW) 11:12:59 436.795
UWE-3 26 Jul 11:16:43 11:19:38 17° 297° (WNW) 11:22:32 435.000/436.395/437.385
FUNcube-1 26 Jul 11:18:55 11:22:28 23° 294° (WNW) 11:25:55 145.935
ZACube-1 26 Jul 11:19:19 11:22:46 22° 294° (WNW) 11:26:09 437.345
ESTCUBE 1 26 Jul 11:26:36 11:29:52 20° 93° (E) 11:33:08 437.505/2401.250
YUBILEINY 26 Jul 11:29:47 11:37:51 39° 289° (WNW) 11:46:00 435.215
TIGRISAT 26 Jul 11:41:25 11:44:21 16° 269° (W) 11:47:18 435.000
NANOSAT C BR1 26 Jul 11:43:29 11:47:43 80° 259° (W) 11:51:59 145.865
VELOX 1 26 Jul 11:47:53 11:51:04 19° 93° (E) 11:54:13 145.980
DUCHIFAT 1 26 Jul 11:48:19 11:52:31 75° 258° (WSW) 11:56:47 145.980
CUBEBUG 1 26 Jul 11:51:35 11:55:09 24° 95° (E) 11:58:44 437.445
JAS-2 26 Jul 11:55:26 12:01:12 47° 70° (ENE) 12:06:26 435.910
Cosmos 2504 26 Jul 11:55:38 12:04:28 70° 281° (W) 12:13:19 435.465 / 435.565
M-CUBED/EXP-1 PRIME 26 Jul 11:59:13 12:03:19 31° 297° (WNW) 12:07:26 437.505
UNISAT 6 26 Jul 11:59:50 12:00:37 10° 273° (W) 12:01:25 437.425
Oscar 19 26 Jul 12:02:00 12:04:53 15° 60° (ENE) 12:07:46 437.125/150
QB50P1 26 Jul 12:05:34 12:09:35 42° 261° (W) 12:13:41 145.935-145.965
BUGSAT 1 26 Jul 12:07:21 12:11:25 78° 75° (ENE) 12:15:34 437.445
POPSAT HIP 1 26 Jul 12:12:03 12:15:58 37° 262° (W) 12:19:57 437.405
AUBIESAT-1 26 Jul 12:26:47 12:30:13 21° 301° (WNW) 12:33:39 437.475
AISAT 26 Jul 12:31:41 12:36:06 58° 101° (E) 12:40:30 437.250
QB50P2 26 Jul 12:33:37 12:36:50 21° 266° (W) 12:40:05 145.880/145.840
DX 1 26 Jul 12:35:11 12:39:22 43° 99° (E) 12:43:32 434.975-435.025
50 SAT 26 Jul 12:35:44 12:39:20 69° 102° (ESE) 12:42:54 437.505
POLYITAN 1 26 Jul 12:36:17 12:39:29 20° 267° (W) 12:42:43 437.675
RS-15 26 Jul 12:43:05 12:52:49 26° 10° (N) 13:02:40 29.354- 29.394
HUMSAT D 26 Jul 12:44:32 12:45:58 12° 299° (WNW) 12:47:25 437.325/437.525
UKube-1 26 Jul 12:50:47 12:55:00 50° 100° (E) 12:59:12 .
ESTCUBE 1 26 Jul 13:02:38 13:06:50 41° 290° (WNW) 13:11:02 437.505/2401.250
Gurwin Techsat 1B 26 Jul 13:12:06 13:16:41 30° 66° (ENE) 13:21:17 435.225
AO-7 26 Jul 13:12:40 13:16:47 15° 43° (NE) 13:20:53 29.400- 29.500
AO-85 26 Jul 13:20:05 13:24:10 22° 111° (ESE) 13:28:08 145.980
VELOX 1 26 Jul 13:23:30 13:27:42 42° 289° (WNW) 13:31:53 145.980
SPROUT 26 Jul 13:26:03 13:30:23 78° 286° (WNW) 13:34:42 437.525
CUBEBUG 1 26 Jul 13:27:33 13:31:28 32° 291° (WNW) 13:35:24 437.445
ITAMSAT 1 26 Jul 13:33:41 13:36:59 17° 60° (ENE) 13:40:17 435.822/435.867
Oscar 19 26 Jul 13:38:28 13:43:35 75° 257° (WSW) 13:48:43 437.125/150
JAS-2 26 Jul 13:41:35 13:46:27 25° 265° (W) 13:50:58 435.910
GONETS M04 26 Jul 13:46:59 13:49:52 12° 72° (ENE) 13:52:43
Cosmos 2504 26 Jul 13:54:44 13:59:37 16° 303° (WNW) 14:04:29 435.465 / 435.565
SWISSCUBE 26 Jul 13:59:38 14:01:32 12° 89° (E) 14:03:25 437.505
AIST 1 26 Jul 14:01:44 14:05:57 67° 280° (W) 14:10:13
AISAT 26 Jul 14:09:32 14:12:06 15° 298° (WNW) 14:14:40 437.250
DX 1 26 Jul 14:12:10 14:15:15 19° 296° (WNW) 14:18:20 434.975-435.025
BEESAT 26 Jul 14:19:57 14:23:15 18° 92° (E) 14:26:30 436.000
TISAT 1 26 Jul 14:25:01 14:29:17 75° 286° (WNW) 14:33:31 437.305
UKube-1 26 Jul 14:27:56 14:30:39 17° 297° (WNW) 14:33:22 .
ITUPSAT 1 26 Jul 14:41:48 14:45:57 29° 96° (E) 14:50:05 437.325
Gurwin Techsat 1B 26 Jul 14:51:38 14:56:30 36° 263° (W) 15:01:25 435.225
RS-15 26 Jul 14:57:23 15:09:18 50° 42° (NE) 15:21:07 29.354- 29.394
AO-85 26 Jul 14:59:02 15:04:19 58° 307° (NW) 15:09:23 145.980
Cosmos 2499 26 Jul 14:59:24 15:06:47 31° 83° (E) 15:14:00 435.465 / 435.565
AO-7 26 Jul 14:59:41 15:07:49 59° 65° (ENE) 15:15:58 29.400- 29.500
ITAMSAT 1 26 Jul 15:10:40 15:15:53 69° 258° (WSW) 15:21:07 435.822/435.867
CUSAT 1 26 Jul 15:33:53 15:36:35 32° 262° (W) 15:39:49 437.405
SWISSCUBE 26 Jul 15:35:04 15:39:50 73° 286° (WNW) 15:44:33 437.505
GONETS M04 26 Jul 15:36:18 15:44:51 68° 93° (E) 15:53:29
DANDE 26 Jul 15:48:35 15:51:11 89° 256° (WSW) 15:53:59 436.750
BEESAT 26 Jul 15:56:42 16:01:18 49° 289° (WNW) 16:05:52 436.000
SO-50 26 Jul 16:15:46 16:19:42 26° 43° (NE) 16:23:31 436.795
KKS-1 26 Jul 16:16:46 16:20:51 33° 97° (E) 16:24:55 437.445
ITUPSAT 1 26 Jul 16:19:34 16:23:45 31° 293° (WNW) 16:27:54 437.325
HORYU 2 26 Jul 16:39:15 16:43:37 54° 72° (ENE) 16:48:01 437.375
AO-85 26 Jul 16:43:20 16:45:48 13° 327° (NNW) 16:48:13 145.980
MOZHAYETS 4 26 Jul 16:44:48 16:49:23 74° 102° (ESE) 16:53:56
CUTE-I 26 Jul 16:46:10 16:48:51 14° 58° (ENE) 16:51:31 437.470
Cosmos 2499 26 Jul 16:50:32 16:59:20 63° 282° (WNW) 17:07:57 435.465 / 435.565
BRITE-PL 26 Jul 16:50:45 16:53:16 16° 64° (ENE) 16:55:47 437.365/2234.400
AO-7 26 Jul 16:53:37 17:00:55 33° 264° (W) 17:08:19 29.400- 29.500
STARS 26 Jul 16:57:36 17:01:53 45° 99° (E) 17:06:08 437.465
NOAA 15 26 Jul 17:07:01 17:11:20 27° 64° (ENE) 17:15:41 137.62
LilacSat-2 26 Jul 17:09:54 17:11:50 13° 64° (ENE) 17:13:46 437.200
NOAA 18 26 Jul 17:13:24 17:17:50 25° 63° (ENE) 17:22:18 137.9125
